Wind_Speed
17 18 20 21 22 22 21 22 22 23 24 25 26 27 29 29 28 28 28 28 28 28 29 29 28 27 26 25 26 26 24 19 14 15 20 23 24 25 27 30 31 31 30 29 29 31 36 40 42 43 44 43 42 42 43 46 48 48 47 46 45 44 44 46 48 49 49 49 48 48 47 47 47 46 46 45 44 43 43 43 43 42 42 41 41 41
18 19 19 20 21 21 21 22 22 21 22 24 25 26 27 27 26 26 28 29 29 28 29 29 29 28 28 26 25 25 25 22 17 12 13 18 21 24 26 28 31 32 33 31 29 28 29 33 36 38 40 42 43 42 41 44 47 50 51 50 49 48 46 46 48 50 51 51 50 50 49 48 48 47 47 46 45 45 44 44 44 43 42 42 41 41
18 19 19 19 19 19 19 22 22 22 21 23 24 24 25 25 24 24 26 28 29 29 29 29 29 29 29 29 27 25 23 22 19 14 10 10 16 21 25 27 28 30 32 33 32 30 28 28 30 33 36 40 42 42 41 41 44 48 51 53 53 52 50 48 47 48 51 52 52 51 51 50 49 48 48 47 47 46 45 44 44 44 43 42 41 40
17 17 18 19 18 18 18 20 20 21 21 21 22 23 24 23 23 22 24 25 27 28 29 29 28 29 30 30 29 26 23 21 19 16 13 9 8 15 21 25 26 27 28 30 31 31 30 29 29 31 34 37 40 42 43 42 42 44 49 52 54 54 53 50 47 46 49 52 53 53 52 51 50 49 48 48 47 47 46 45 45 45 44 43 42 41
16 16 17 17 17 18 18 19 19 19 21 21 21 22 22 22 22 22 24 24 25 26 27 29 28 28 29 30 29 28 25 23 21 19 16 12 8 6 10 17 22 25 27 28 28 30 31 31 31 31 33 35 38 40 43 44 44 43 45 49 52 54 53 51 48 46 46 49 53 54 54 52 51 50 49 48 48 48 47 47 46 45 45 44 43 42
16 16 16 16 16 17 17 17 17 18 21 21 21 21 21 22 22 23 24 24 23 24 25 27 28 27 26 26 27 28 26 25 23 21 19 16 12 9 5 7 13 20 25 28 29 29 30 30 31 31 32 34 35 37 39 43 45 45 45 47 50 52 53 51 49 47 46 47 49 52 54 53 52 50 50 49 49 48 48 48 47 46 46 45 44 43
17 16 15 15 16 16 16 15 15 17 19 20 20 21 20 20 22 23 24 23 23 23 24 27 28 27 25 24 24 26 26 27 25 24 22 19 16 12 9 6 7 12 18 24 28 31 31 31 31 31 31 32 33 34 36 39 43 45 47 47 49 50 51 51 50 49 48 47 47 49 52 53 52 51 50 50 49 49 49 48 48 48 47 47 45 44
17 17 16 15 15 16 16 15 14 15 18 18 19 20 20 20 21 23 25 24 24 24 25 28 30 29 27 25 23 24 26 27 27 25 23 21 19 16 13 10 7 7 10 15 22 27 31 32 33 32 32 32 33 34 34 36 39 43 47 49 50 50 51 52 51 51 49 48 47 47 49 51 52 52 51 51 51 50 50 49 49 48 48 48 47 45
16 16 16 15 15 15 16 15 15 15 17 17 17 17 18 19 21 23 24 24 23 24 25 27 29 30 29 27 25 24 24 26 26 26 24 23 21 19 16 13 10 8 7 9 13 18 24 29 32 33 34 34 34 34 34 35 38 42 47 51 51 51 51 52 53 52 51 50 49 48 47 49 51 52 52 52 52 51 50 50 49 49 49 49 48 47
15 15 15 15 14 13 14 15 15 16 16 16 15 15 15 17 19 21 23 23 23 23 24 24 26 28 29 28 26 25 24 25 25 24 23 22 21 21 19 17 14 11 9 8 8 10 15 20 25 30 33 34 35 34 34 35 37 42 48 52 53 51 49 51 53 53 53 52 51 50 48 48 49 52 53 54 54 53 51 50 50 50 50 49 49 48
14 14 14 14 14 13 13 13 14 15 15 15 14 14 13 15 17 19 20 21 22 23 24 24 24 24 26 27 26 25 25 25 26 25 24 23 22 22 21 20 17 14 12 10 9 8 9 12 17 22 27 30 33 34 34 35 37 42 48 54 55 51 48 49 51 52 52 52 52 52 51 49 48 49 52 54 55 54 52 51 50 51 51 50 49 49
14 14 13 14 14 14 14 14 14 14 14 14 15 15 15 15 16 16 17 18 20 21 22 23 24 23 22 22 23 24 25 25 27 28 28 26 25 24 24 23 21 18 14 12 10 9 8 8 10 14 19 23 28 30 32 34 37 41 46 52 55 53 49 48 48 50 50 50 51 51 52 51 50 48 49 52 54 55 54 52 51 52 52 51 50 49
13 13 13 14 14 14 13 14 14 14 14 14 14 14 15 16 16 16 15 16 17 18 20 21 22 22 21 19 19 21 23 24 26 28 29 29 28 28 27 26 24 21 18 14 11 10 10 9 8 9 12 16 21 26 29 32 35 38 43 48 53 55 53 50 48 48 48 48 49 49 50 51 51 49 48 49 52 54 54 54 54 54 53 52 51 50
14 13 14 14 14 13 13 13 14 14 14 13 13 14 15 15 16 15 15 16 17 17 18 19 19 19 19 17 16 18 21 23 25 27 28 29 28 28 28 28 26 24 21 18 15 13 12 11 10 9 10 12 15 20 24 28 32 35 38 42 47 51 55 54 52 50 48 47 48 49 51 52 52 51 49 49 50 52 54 56 56 56 54 53 52 50
13 13 13 13 13 13 13 13 13 13 14 14 14 14 15 15 15 15 15 16 18 18 18 18 18 17 15 13 14 16 19 23 26 27 28 28 28 27 28 28 27 25 22 20 18 16 13 12 12 12 11 12 13 15 19 23 27 30 33 36 40 45 50 54 55 53 51 49 49 51 52 53 53 52 51 49 49 51 54 56 57 56 55 54 53 52
13 13 13 13 13 13 13 13 13 13 14 14 14 15 15 15 15 15 15 16 17 17 17 17 17 16 15 13 12 14 19 23 25 25 25 27 27 26 26 27 26 25 23 21 19 17 14 13 12 13 13 13 14 15 16 19 22 25 28 32 35 39 44 49 53 55 54 52 50 49 51 53 53 52 51 50 49 50 52 55 56 55 55 55 54 53
13 13 13 13 14 14 14 13 13 13 14 14 14 14 14 14 14 14 14 15 15 15 15 14 13 11 12 13 13 14 19 22 24 24 23 25 26 26 25 24 24 24 23 22 20 18 16 14 14 13 13 14 15 15 16 18 19 22 24 27 31 35 40 44 49 53 55 54 49 46 47 49 51 51 51 50 49 49 50 53 53 53 53 55 56 55
13 13 13 13 14 14 14 14 14 14 14 14 14 15 15 15 14 14 14 14 14 13 14 13 12 10 9 12 13 15 19 21 22 22 22 22 24 25 24 23 22 23 22 22 20 18 16 15 14 14 14 14 15 16 17 18 19 21 22 25 28 32 36 40 45 50 54 54 51 48 46 47 47 48 49 50 50 50 51 52 52 52 53 55 57 57
14 14 13 13 14 14 14 14 13 13 13 14 15 16 16 15 15 14 14 13 13 13 13 13 13 13 13 14 16 18 19 19 19 19 19 19 21 23 22 20 20 21 21 21 20 19 17 15 14 13 14 14 14 14 16 18 19 21 22 24 26 29 32 36 40 45 50 53 53 51 49 48 47 47 47 48 49 50 51 51 51 51 52 55 57 57
14 14 14 13 14 15 15 14 13 13 13 14 16 16 16 16 15 14 13 13 13 13 13 14 14 15 15 17 19 20 20 19 19 18 17 17 18 19 19 17 17 19 20 20 20 20 19 17 15 14 14 14 14 14 14 16 17 20 22 23 25 27 29 32 35 39 43 48 51 52 52 52 51 49 48 47 48 49 49 49 49 49 51 53 55 55
15 15 14 14 14 15 15 14 14 14 14 15 15 15 15 15 14 14 13 13 14 15 15 14 15 16 17 18 21 22 22 19 17 16 16 16 16 16 16 15 15 17 18 20 21 20 20 19 17 16 15 15 14 13 13 14 15 17 19 21 24 25 27 29 31 34 37 41 44 47 50 52 54 54 52 49 47 47 47 47 47 47 48 50 52 54
15 16 15 15 15 15 16 17 16 16 15 15 14 14 13 13 14 14 15 15 16 16 17 17 17 18 19 21 23 24 23 18 15 15 15 15 15 15 14 14 14 16 17 18 20 20 20 20 19 18 17 16 15 14 13 13 13 14 16 18 21 23 25 27 29 31 33 36 39 42 45 49 53 55 54 51 48 46 45 45 45 45 46 47 49 52
17 17 17 16 16 16 16 16 16 15 14 14 13 13 14 14 15 16 17 17 18 19 19 20 21 22 22 22 23 23 21 17 15 14 13 12 14 15 14 14 15 15 16 17 18 19 20 20 20 19 18 17 17 16 16 14 13 13 13 15 17 19 22 24 27 29 31 33 36 39 42 45 49 52 52 51 49 47 47 47 47 46 46 47 48 51
17 18 18 17 16 16 16 16 16 16 15 15 15 16 17 18 19 19 19 20 20 21 22 22 22 22 21 20 20 20 18 16 14 13 12 12 14 15 15 14 15 15 16 16 16 17 19 20 20 18 17 17 17 17 17 17 16 14 13 13 13 15 17 20 23 27 30 32 35 37 40 43 46 48 50 49 48 48 50 51 52 50 48 49 50 52
17 18 18 18 18 18 18 18 18 18 18 19 20 21 21 21 21 21 21 21 21 20 20 20 20 20 18 17 17 17 16 15 13 13 13 13 15 16 16 14 14 15 16 16 15 16 17 19 19 18 17 16 16 16 17 18 18 17 16 14 13 13 13 15 18 22 26 30 33 36 39 41 44 46 48 48 48 49 51 53 54 53 50 50 51 53
20 21 21 21 21 22 22 23 23 23 23 22 23 23 22 22 22 22 22 20 19 17 17 17 17 17 17 16 16 15 15 14 14 13 14 13 15 16 16 14 13 14 15 15 15 15 16 17 19 19 17 16 15 14 15 16 17 18 18 17 16 15 14 13 14 16 19 23 28 33 37 39 42 45 47 47 47 49 51 53 53 52 49 49 51 53
23 23 24 25 25 25 25 25 26 26 25 25 24 23 22 22 22 21 20 18 17 16 15 15 14 15 16 16 15 15 14 14 14 14 14 15 16 17 16 14 13 13 15 16 15 15 16 18 19 19 17 15 14 13 13 14 15 17 18 18 18 17 17 15 14 14 14 16 20 26 31 35 39 42 45 46 47 48 50 51 51 50 46 47 49 51
23 24 25 25 26 26 26 26 26 26 25 25 24 23 21 20 20 20 19 17 16 15 16 15 13 13 14 15 15 16 15 16 15 15 15 15 15 15 15 14 14 14 15 16 17 17 17 17 16 15 14 13 13 12 12 12 13 14 15 16 17 18 18 18 17 16 15 14 15 18 22 28 33 37 41 43 45 47 50 51 50 48 46 46 48 50
22 23 24 24 24 23 23 23 24 24 23 23 22 21 20 19 19 19 18 17 16 16 16 16 16 15 15 16 17 18 17 17 16 15 15 14 14 14 15 14 14 14 13 14 16 17 15 14 13 12 11 10 10 10 10 9 9 10 11 12 14 15 17 18 18 18 17 16 15 15 16 19 24 29 35 39 42 45 49 52 52 50 48 47 48 48
20 21 22 22 21 21 21 21 21 21 21 21 20 19 18 18 18 19 18 17 16 16 17 17 17 17 16 16 16 15 15 14 13 11 12 12 12 12 13 13 13 13 13 12 11 10 11 13 12 10 9 8 8 8 8 9 9 9 10 10 11 11 13 14 15 16 17 17 17 16 15 15 17 20 25 31 36 40 45 50 53 52 50 48 46 45
21 21 21 21 20 20 20 19 19 20 20 20 19 18 18 18 18 18 17 17 17 17 17 18 18 17 15 13 9 7 8 10 10 9 10 9 10 12 14 13 13 14 13 10 6 4 7 10 10 9 8 9 10 11 12 13 14 14 14 14 13 12 11 12 12 14 15 16 16 16 15 15 14 15 17 21 26 32 38 44 48 51 50 48 45 44
22 22 22 21 21 20 19 19 19 19 19 19 19 18 18 18 18 18 17 17 17 17 18 18 18 17 16 14 10 8 10 13 13 12 12 11 13 15 16 15 15 14 13 12 9 6 5 6 9 12 12 13 15 17 19 20 20 20 20 20 19 17 15 14 13 13 13 14 14 15 15 15 14 14 14 15 18 22 28 34 41 45 47 46 44 43
22 22 22 22 21 21 20 19 19 19 19 19 19 19 18 18 18 18 18 18 17 18 18 18 18 17 17 17 16 16 18 17 16 15 14 14 15 17 18 17 16 16 15 14 14 13 10 11 13 16 17 16 16 18 20 21 22 22 22 22 21 20 18 17 16 15 15 14 14 14 14 15 15 14 14 14 14 16 19 24 31 37 41 42 41 40
22 22 22 22 22 21 21 21 20 20 20 19 19 19 19 19 19 19 19 19 18 18 19 19 19 18 17 17 17 18 19 18 16 15 15 15 16 17 19 18 17 16 15 14 13 13 13 14 15 15 16 16 16 16 17 19 20 21 20 20 19 18 17 17 16 16 16 16 16 15 15 15 15 15 14 14 13 14 15 18 22 29 35 38 38 37
22 22 22 22 22 22 22 22 22 21 21 20 20 20 20 20 20 20 20 19 19 19 20 21 21 21 20 18 17 18 19 18 16 15 15 15 16 17 18 18 17 15 14 13 12 12 12 13 14 14 14 15 16 16 16 16 17 17 17 17 16 15 15 15 15 16 16 17 17 17 16 16 16 15 15 14 14 13 13 14 17 21 28 33 36 37
22 23 22 22 22 22 22 22 22 22 22 21 21 20 20 20 20 20 20 20 20 20 21 21 22 22 23 23 22 21 21 20 18 17 17 17 17 18 18 17 17 16 15 14 14 13 12 13 15 16 15 14 15 15 16 15 14 14 14 15 15 15 15 15 15 15 16 16 16 17 17 17 16 16 16 15 15 14 13 13 13 15 20 26 32 36
22 22 22 21 21 22 22 22 22 22 22 22 21 20 20 20 20 20 20 20 20 20 21 21 22 22 23 24 25 26 26 24 22 21 20 20 20 21 21 20 20 19 17 16 15 14 14 14 15 16 15 14 13 13 15 14 13 13 14 15 16 16 16 16 15 15 15 16 16 16 17 17 17 17 17 16 16 15 14 14 13 13 14 18 24 30
21 21 21 21 21 22 22 22 22 22 22 22 21 20 19 19 20 20 20 20 20 20 21 22 22 23 24 25 26 28 28 26 25 24 23 23 23 24 24 24 23 22 20 19 17 16 15 14 11 10 12 14 15 15 16 14 14 14 14 16 17 18 17 17 16 16 16 16 16 17 17 17 17 17 17 17 17 16 16 15 15 14 14 14 17 21
20 20 21 21 21 21 22 22 22 22 22 22 21 21 20 20 21 22 23 22 21 22 23 23 23 24 25 26 27 27 27 27 26 26 25 26 26 26 27 26 25 25 24 22 20 19 18 16 14 11 11 13 15 16 16 15 15 15 16 17 17 18 18 16 16 16 16 17 17 18 18 18 18 18 18 18 18 17 17 17 17 16 15 15 15 17
18 20 21 22 22 22 22 23 23 23 22 22 22 22 21 21 22 23 24 24 23 23 24 24 24 24 25 25 26 26 27 27 27 27 26 27 28 28 28 28 27 27 26 24 23 22 21 20 19 18 17 16 15 16 17 17 15 14 14 14 14 14 13 14 15 16 18 18 19 19 19 19 19 19 19 19 18 18 18 17 17 17 16 16 16 16
20 22 22 23 22 23 23 23 23 23 23 23 23 22 21 22 23 23 23 22 23 23 23 23 23 24 25 25 25 26 26 27 27 27 27 27 26 26 28 29 30 29 27 25 25 24 22 21 20 20 20 19 18 17 18 18 17 15 14 14 14 14 14 14 16 17 18 19 19 19 18 18 18 18 18 18 18 18 18 17 17 17 17 17 17 17
22 23 23 22 22 22 22 22 22 23 23 23 23 23 23 22 22 22 21 21 22 23 21 21 21 22 23 24 24 24 24 25 25 25 26 26 26 26 27 29 30 30 29 27 25 24 23 22 21 20 20 19 18 17 18 18 18 17 16 16 16 15 15 15 15 15 16 17 17 16 16 16 16 17 17 17 17 18 18 18 17 17 16 16 17 18
22 22 22 21 21 21 21 22 22 22 22 22 23 23 23 22 22 22 21 22 22 22 22 22 22 22 22 23 22 22 21 22 22 22 23 24 24 25 26 27 28 28 28 26 25 24 23 22 22 21 21 19 18 17 19 19 19 18 17 16 15 13 12 12 12 12 13 15 15 16 16 16 16 17 17 18 18 19 19 19 19 19 18 18 17 17
21 21 21 21 21 21 21 21 21 21 21 22 23 23 23 23 22 21 21 21 22 22 22 22 22 22 22 23 22 21 20 20 19 20 20 22 23 23 24 25 26 26 27 27 25 22 21 21 21 22 21 19 19 19 19 19 19 19 18 17 16 15 14 13 12 12 13 14 15 16 17 17 17 17 19 20 20 21 20 20 20 20 20 20 19 19
21 20 21 20 20 20 20 20 20 20 21 21 22 22 22 22 21 21 21 21 22 22 22 22 20 20 20 21 20 19 19 19 18 18 18 19 21 22 22 23 24 25 26 27 27 25 22 20 20 20 19 19 19 19 19 19 20 20 19 18 17 17 18 17 16 15 14 14 15 16 17 17 17 17 18 19 20 21 21 21 21 21 21 21 21 21
20 20 20 20 20 20 20 20 20 20 21 21 21 21 20 21 21 20 21 21 21 21 22 21 20 19 20 19 19 18 19 19 18 17 16 16 17 18 20 21 22 23 25 26 27 27 26 24 21 19 17 17 18 19 20 20 20 20 19 19 17 17 17 17 17 16 15 15 15 16 16 15 14 14 15 16 17 19 20 21 22 22 21 21 22 22
20 20 20 20 20 20 20 20 20 20 21 21 21 21 21 21 20 20 20 20 20 20 21 21 21 21 21 21 19 18 19 19 18 17 16 15 15 16 17 18 20 21 22 24 25 27 28 28 26 22 19 17 17 18 19 20 20 19 19 19 18 17 17 17 17 16 15 15 15 15 14 13 12 13 13 14 15 16 18 20 21 22 22 21 21 22
20 20 20 19 19 20 21 20 20 20 21 21 22 22 21 21 21 20 19 19 20 20 20 21 21 21 22 21 20 20 20 20 19 18 17 16 16 15 15 16 17 18 20 22 23 25 26 27 27 26 24 21 18 18 19 19 19 19 19 19 18 17 17 17 16 15 15 15 15 14 13 12 12 12 13 13 14 15 16 17 19 21 21 21 20 20
19 20 20 20 20 20 20 20 21 21 21 21 21 22 21 21 21 20 19 19 20 20 20 20 20 20 20 21 21 21 20 20 19 19 18 17 15 15 15 15 16 16 17 18 20 22 23 25 27 28 28 26 23 20 20 20 19 18 18 18 18 18 17 17 16 15 14 14 14 13 12 12 12 12 12 13 14 14 14 15 17 19 20 20 19 19
20 20 21 21 21 21 21 21 21 21 21 21 21 21 21 21 20 20 19 19 20 20 20 19 19 20 20 21 21 21 20 19 19 19 18 17 15 14 15 15 15 15 15 15 15 16 17 19 22 26 28 30 28 25 23 21 20 19 18 18 18 17 17 17 16 15 14 14 13 13 12 12 12 12 13 13 13 14 14 15 16 17 19 19 19 18
20 20 21 21 21 21 21 21 21 20 20 20 20 21 21 20 20 20 20 19 20 20 20 19 19 20 21 21 21 21 20 20 19 19 18 17 15 15 15 15 15 14 14 13 12 11 10 11 13 17 23 28 30 30 28 24 21 19 18 18 18 17 17 17 17 16 15 14 13 12 12 12 12 12 13 12 12 13 14 14 14 15 17 18 18 17
Wind_Direction
323 324 327 333 335 336 336 340 342 343 344 345 346 347 348 349 350 353 357 360 2 2 0 358 355 354 355 355 355 355 351 341 313 274 253 244 237 231 226 223 223 223 223 220 218 217 217 216 214 213 214 217 219 221 223 224 226 227 227 226 223 218 213 209 209 210 211 210 209 208 208 207 207 206 206 207 208 208 207 206 204 204 204 205 206 205
326 326 328 332 335 335 334 338 341 342 342 342 342 344 346 346 347 349 353 356 360 1 1 359 356 354 354 353 354 354 354 351 343 317 271 249 239 231 226 224 223 224 223 222 219 217 215 216 217 218 219 222 224 224 225 224 224 225 227 227 226 223 218 213 209 209 210 209 209 208 208 208 208 207 207 207 208 209 209 207 205 204 205 206 206 206
326 327 328 331 333 334 333 335 338 340 339 339 340 342 345 345 346 346 348 351 355 359 0 0 359 357 355 354 353 353 353 353 352 345 324 270 242 231 225 223 223 223 222 222 222 222 220 218 219 221 225 227 229 230 229 228 226 226 226 227 227 226 223 217 212 209 208 208 208 208 208 208 208 208 208 208 208 209 209 208 207 205 205 206 207 207
325 326 327 329 330 330 330 332 334 336 337 337 338 341 344 346 346 345 345 347 350 354 357 360 1 1 360 357 353 351 352 353 352 350 347 330 270 238 228 224 222 221 221 221 223 224 224 221 220 222 225 229 232 233 233 232 230 228 228 228 228 228 225 221 216 212 209 207 207 208 208 208 208 208 209 209 209 209 210 209 208 206 206 207 207 208
323 324 324 326 326 327 328 330 332 334 336 336 337 340 343 345 345 344 345 347 348 350 352 356 359 2 3 1 357 353 352 352 353 352 349 349 337 286 243 230 226 223 222 222 222 224 224 222 219 218 221 225 230 233 235 234 233 232 230 230 230 229 226 222 219 216 212 209 207 207 207 207 208 209 209 210 210 210 211 211 210 209 208 208 209 209
319 320 321 322 322 323 325 327 331 335 338 337 337 339 341 342 342 343 345 346 347 347 348 351 355 360 3 4 2 357 353 353 353 353 350 346 344 343 323 260 238 231 228 225 224 224 225 224 221 218 217 220 225 230 233 235 235 234 233 232 232 231 228 223 220 218 216 213 209 207 207 208 208 209 210 210 211 211 212 212 211 210 210 210 210 209
316 318 320 321 320 321 323 325 329 335 339 337 337 338 339 340 341 342 343 344 345 345 346 348 352 356 1 3 3 0 357 354 354 354 355 350 343 338 336 320 274 247 237 231 227 226 226 226 225 224 221 220 222 226 231 234 236 236 235 235 234 233 229 225 221 220 220 218 214 210 208 208 209 210 211 211 211 212 212 212 212 211 211 211 210 210
314 317 319 321 321 322 323 324 329 335 339 337 336 336 337 338 339 340 342 343 344 345 345 346 349 352 357 0 1 359 357 355 354 355 357 356 350 341 331 324 311 280 254 241 232 228 226 226 228 229 228 227 226 227 231 235 237 237 236 235 235 233 231 227 224 222 222 222 220 216 211 209 210 211 212 212 212 212 213 213 213 213 212 212 211 210
311 314 317 319 321 322 323 324 327 333 337 337 335 334 336 337 338 339 340 341 342 343 344 345 346 348 352 356 357 355 352 350 350 352 355 357 355 349 340 330 319 306 287 266 245 233 226 225 226 229 232 233 233 233 235 238 240 239 236 234 233 232 230 228 226 224 223 223 222 220 216 212 211 211 213 213 213 213 213 214 214 214 213 213 212 211
310 312 315 317 318 319 320 321 324 328 332 334 333 332 335 339 340 339 338 338 339 340 341 342 343 344 347 352 354 352 348 344 344 346 349 353 355 355 351 343 332 319 305 292 273 249 231 223 223 226 230 233 236 238 240 242 242 239 235 231 229 228 227 226 225 225 224 223 223 222 221 217 213 212 213 214 214 214 214 214 214 215 214 214 213 212
312 313 315 316 318 318 317 317 320 325 330 331 332 333 337 342 343 340 337 334 335 336 338 338 338 339 342 346 349 348 345 341 339 339 341 344 348 352 353 351 345 335 320 304 291 274 251 230 221 221 224 228 233 236 239 241 241 239 235 230 227 225 223 222 222 222 222 222 222 222 222 221 218 215 213 213 214 214 214 213 214 215 215 215 214 213
313 315 315 316 318 319 319 319 322 326 332 336 337 337 338 341 342 339 333 330 330 332 333 332 333 334 337 339 342 343 342 340 338 336 335 335 338 343 346 349 349 345 334 318 302 288 275 254 233 222 220 222 226 229 233 236 237 237 235 231 228 225 223 221 220 219 220 220 221 222 222 222 222 219 216 214 214 214 214 214 214 216 216 216 215 215
312 313 314 314 316 317 321 323 326 330 335 338 339 337 334 334 335 334 329 325 326 327 328 327 327 329 333 335 336 337 339 339 337 335 333 332 333 336 339 341 343 344 342 333 317 302 291 278 260 239 227 223 223 224 227 229 232 234 235 233 230 228 226 224 222 221 220 221 222 223 224 223 223 222 220 218 217 216 215 215 215 216 217 217 217 216
312 314 314 314 314 317 321 325 327 329 331 333 333 329 326 327 329 330 327 324 324 325 325 323 322 323 327 330 330 330 334 337 337 335 333 331 332 334 335 336 337 339 342 341 334 322 307 292 278 261 245 235 229 227 226 226 228 230 232 232 231 229 228 227 226 225 224 224 224 226 226 225 224 223 222 222 220 219 217 216 216 216 216 217 217 217
312 313 313 312 312 315 319 322 323 324 324 326 326 325 324 325 328 329 328 325 324 325 326 323 321 320 322 324 325 327 330 335 338 337 334 331 330 332 334 334 334 334 337 338 338 334 324 308 292 277 264 250 241 235 231 227 226 226 228 229 230 229 228 228 227 226 226 226 227 227 227 226 225 225 225 224 224 222 221 219 217 216 215 216 218 218
308 309 308 307 308 310 313 317 318 318 319 320 322 323 324 325 327 327 326 323 323 324 326 325 324 322 320 320 323 327 331 335 337 336 333 329 329 331 333 333 332 331 332 333 335 337 336 326 311 295 281 267 255 246 239 234 230 227 227 227 229 229 228 228 227 227 226 226 226 226 226 226 226 226 226 225 225 225 224 222 220 218 217 217 218 219
302 302 302 303 304 306 309 312 313 314 316 317 319 320 321 322 322 322 321 321 322 323 324 324 323 321 319 318 320 326 332 336 336 333 329 325 325 329 332 332 331 329 328 329 331 334 336 336 330 316 299 283 270 259 249 242 236 232 230 229 229 230 229 229 228 227 226 226 225 224 223 223 224 224 225 225 225 225 224 224 222 221 220 220 220 219
296 297 298 299 300 302 306 308 310 311 314 316 317 318 317 317 317 317 316 317 318 319 319 318 315 312 311 311 314 321 330 335 334 330 325 320 321 325 331 331 329 327 326 326 327 328 330 332 333 329 318 302 285 271 259 250 243 238 235 232 231 231 231 231 230 229 229 228 228 226 224 222 222 221 222 222 222 222 222 223 223 223 224 223 221 220
291 292 293 295 297 299 302 303 306 310 313 315 316 316 315 313 313 313 312 313 313 313 313 311 308 305 304 302 306 315 324 330 330 325 319 315 315 320 327 330 328 325 323 323 324 325 324 323 323 324 323 316 303 285 270 259 251 245 240 236 233 231 231 231 231 231 230 230 231 230 228 226 223 222 221 220 220 220 220 221 223 224 225 224 222 220
286 286 287 290 295 297 298 299 302 307 310 311 312 311 309 309 309 309 308 309 309 308 308 305 302 301 301 301 304 310 317 323 323 319 313 309 308 313 321 325 324 320 319 318 320 321 320 317 313 311 313 314 311 301 287 274 263 255 248 243 238 235 232 231 230 230 230 231 232 232 232 230 227 225 223 222 221 221 221 222 223 225 226 226 225 223
281 281 282 286 291 293 294 295 299 303 306 308 308 306 304 305 306 306 306 308 307 306 304 300 297 298 300 301 302 305 309 315 315 311 308 305 304 306 313 318 317 314 312 312 314 316 316 314 310 305 301 301 303 304 300 290 279 269 259 253 247 242 239 235 233 231 230 230 231 232 232 231 229 227 226 225 224 225 225 226 226 227 227 228 227 226
274 277 280 283 285 286 288 291 294 298 300 303 302 300 299 301 302 302 303 304 303 301 298 295 293 294 296 296 296 298 302 303 302 300 302 301 299 300 305 311 311 309 306 307 310 312 313 312 309 304 298 294 292 292 293 293 289 282 272 265 259 254 249 244 240 237 234 232 231 230 230 230 229 228 227 226 226 227 228 229 231 232 233 232 231 229
266 271 276 279 280 280 283 287 291 294 296 296 294 292 293 294 294 295 296 297 296 295 294 292 292 292 291 290 292 294 296 295 292 291 292 291 293 296 300 305 307 304 301 302 305 308 309 309 307 304 298 293 288 284 283 282 283 283 282 277 271 265 259 254 249 245 241 238 234 232 230 229 228 227 227 226 226 226 227 228 230 234 238 240 238 234
264 268 272 275 276 277 279 283 286 290 292 291 289 288 289 288 288 287 289 289 290 290 291 292 292 291 289 288 289 291 292 291 289 286 285 284 287 291 296 301 303 301 297 298 301 303 305 306 306 304 300 294 289 284 280 277 275 274 275 277 277 274 269 263 257 253 248 244 240 236 233 231 229 228 227 226 225 224 224 224 226 230 237 240 239 236
266 268 271 274 275 275 277 280 282 285 287 288 288 289 290 290 289 288 288 287 287 288 290 291 290 289 289 290 290 290 291 290 286 282 281 283 286 289 292 296 298 296 294 296 299 302 304 306 308 307 304 300 294 288 282 277 273 270 269 269 271 274 275 273 267 261 256 251 246 241 237 234 232 230 229 227 225 224 223 223 224 227 234 237 236 234
270 271 273 274 274 274 277 278 279 280 281 282 284 286 288 290 290 290 289 287 286 286 287 287 286 286 288 290 289 288 291 292 288 283 281 284 287 289 290 293 293 292 293 294 298 301 304 305 307 309 309 307 302 295 287 280 274 270 267 266 265 267 270 274 276 273 266 259 253 247 242 239 235 233 231 229 227 225 224 223 224 228 233 235 235 233
272 273 273 273 273 274 275 276 277 277 277 277 277 279 281 285 287 287 284 283 283 284 283 283 285 287 288 287 286 286 289 291 288 284 282 283 285 286 288 291 293 292 293 295 297 301 304 303 303 307 309 308 305 298 291 284 279 274 270 267 266 266 266 268 272 276 276 271 263 255 249 244 240 237 234 232 229 227 225 225 226 230 235 236 235 234
280 279 278 277 276 276 275 275 275 275 275 274 274 274 276 277 278 278 277 279 281 282 280 279 281 284 286 286 286 287 288 287 285 283 282 281 279 280 285 290 291 291 295 299 303 304 303 300 301 304 306 305 302 299 297 294 289 283 277 273 270 269 268 269 270 272 275 276 274 267 259 252 247 242 238 235 232 229 227 227 230 234 238 237 236 235
286 287 286 285 284 281 279 277 276 275 274 273 272 272 270 269 268 268 271 276 279 279 277 276 277 278 281 284 287 288 286 283 282 281 279 275 272 275 283 289 290 294 303 310 311 307 302 297 297 299 299 297 298 301 305 307 306 300 293 284 278 273 271 271 271 272 273 273 274 273 269 262 255 249 244 240 236 232 228 228 230 234 238 238 237 236
285 286 287 286 285 283 281 279 278 276 274 273 272 270 267 263 261 262 267 271 273 273 274 274 275 275 278 283 287 287 284 282 282 281 277 272 271 278 287 289 293 301 313 317 315 308 300 297 294 292 288 287 292 300 306 309 312 313 310 302 291 281 274 272 271 272 271 271 270 270 270 268 263 257 251 246 241 236 231 229 230 232 236 238 239 238
282 282 281 282 281 281 279 277 276 275 275 274 272 269 265 261 259 259 262 265 266 266 269 272 273 273 273 277 281 283 281 284 287 288 286 281 280 285 290 292 294 299 306 308 309 306 302 298 294 287 284 285 287 290 292 295 298 301 304 304 301 294 285 278 274 271 270 269 268 267 267 267 266 264 259 253 247 242 236 232 230 230 232 234 236 237
281 281 280 281 281 280 278 276 274 274 273 272 270 268 264 260 258 257 257 259 260 262 264 267 270 271 269 266 264 266 272 278 283 288 291 290 288 288 289 289 291 293 295 292 282 275 287 290 289 288 288 289 288 287 286 287 290 292 295 297 298 297 293 289 283 278 274 271 269 267 266 265 265 264 263 260 254 248 243 238 234 232 230 230 230 232
280 279 278 279 279 278 276 275 274 272 271 269 268 266 264 261 258 256 255 256 257 258 260 263 266 268 268 266 264 265 269 272 276 281 284 285 284 284 284 286 287 289 290 286 276 267 265 272 281 287 289 290 289 288 287 288 289 290 292 293 294 294 293 292 289 286 282 279 275 272 270 268 266 265 264 262 258 253 247 243 239 236 232 229 227 227
279 277 276 276 276 276 275 275 273 272 270 268 266 265 264 262 259 257 255 254 255 255 256 257 260 264 267 269 268 268 269 270 273 276 276 276 276 278 281 282 283 284 286 283 276 269 267 269 276 283 288 290 289 289 289 289 291 292 292 291 291 292 293 292 292 290 286 283 280 278 275 273 271 269 267 264 261 256 250 245 242 239 235 231 227 225
278 277 276 275 274 274 274 274 273 272 270 268 266 265 264 262 260 258 257 256 256 256 256 255 256 258 261 264 267 269 271 272 273 273 271 272 274 277 279 278 278 280 282 280 277 274 274 273 275 279 286 290 291 290 289 290 292 293 292 291 289 290 291 291 292 291 289 286 283 280 278 277 275 273 270 267 264 260 254 248 243 240 237 233 229 226
277 276 275 274 273 273 273 273 272 272 271 270 268 266 265 262 261 259 258 258 258 259 259 258 258 258 258 259 261 265 268 273 273 270 267 268 273 277 279 277 276 277 279 278 278 277 277 278 279 279 282 285 288 290 290 290 291 291 288 286 286 287 288 288 289 289 288 287 284 281 279 277 275 274 271 269 266 263 258 253 247 242 238 235 231 228
274 274 273 273 272 272 271 271 271 271 271 271 270 268 266 264 262 261 259 258 260 261 262 263 262 262 260 260 261 262 266 270 270 268 265 265 267 270 274 274 273 273 273 275 277 278 278 279 279 278 277 276 279 284 287 289 288 285 282 282 284 286 286 286 285 284 284 284 283 282 280 278 275 274 271 269 266 264 261 257 252 247 242 238 234 230
274 274 274 273 272 271 271 271 270 270 271 271 270 269 267 265 264 264 262 263 263 263 265 265 265 265 264 263 263 264 267 268 268 267 266 264 263 263 266 268 268 267 267 269 272 275 276 275 275 276 274 273 274 277 280 283 283 281 281 283 285 285 283 282 280 279 279 279 280 280 280 279 277 275 273 270 267 264 261 258 254 251 246 243 239 235
273 273 273 273 272 271 271 271 271 271 271 271 271 271 270 268 268 269 268 268 267 267 267 266 266 266 266 266 265 266 267 268 269 268 266 263 260 259 259 262 264 264 264 265 267 269 269 267 267 268 271 274 275 276 277 278 279 280 283 286 287 284 281 279 276 274 273 274 275 277 278 279 280 279 277 274 270 266 263 260 256 252 249 247 244 241
273 273 273 273 272 272 272 271 272 272 273 273 273 272 272 271 271 271 271 271 270 269 269 268 267 267 268 268 267 266 266 268 269 269 267 264 260 258 256 256 258 261 263 264 265 264 262 262 262 263 264 267 271 274 276 276 277 280 284 287 285 282 279 278 276 274 273 273 274 276 278 280 280 280 278 275 272 268 264 261 258 255 251 249 247 246
275 275 274 274 273 272 272 272 272 273 273 273 273 273 271 271 271 272 272 271 271 270 269 269 268 269 270 270 269 267 266 267 269 269 268 266 262 257 254 253 254 257 260 262 262 261 258 258 258 260 260 262 265 268 270 271 273 275 278 278 278 279 280 278 275 275 276 276 277 278 279 279 279 278 276 274 272 269 264 260 257 255 253 251 249 247
274 273 273 273 273 273 273 274 274 274 274 273 272 271 270 270 270 271 271 271 271 271 270 269 269 270 271 271 269 268 266 266 267 269 269 269 266 262 257 254 254 255 256 258 259 258 256 255 254 255 256 258 261 264 266 268 269 270 270 271 275 280 282 278 274 273 275 277 279 279 279 279 278 276 275 273 270 267 264 259 255 251 249 248 249 249
274 274 274 275 275 275 276 277 276 275 274 273 271 270 269 268 268 269 270 270 271 272 272 271 271 271 272 272 272 270 268 267 267 267 267 268 267 264 260 257 255 255 254 254 254 255 255 254 252 252 253 254 256 259 262 265 267 267 267 266 269 272 275 273 273 274 276 277 278 279 279 278 277 277 275 273 270 268 265 261 256 251 246 242 243 246
274 275 275 276 276 277 277 277 276 274 273 272 270 269 268 267 267 267 267 268 269 271 272 272 272 272 271 272 272 273 272 271 269 267 265 265 266 266 263 260 258 256 254 250 249 250 253 253 252 251 252 252 253 254 256 260 263 265 265 264 262 260 259 263 268 271 272 274 276 277 278 279 279 278 276 274 271 268 266 262 258 254 248 243 239 239
271 273 274 274 275 275 275 274 274 274 273 271 270 269 269 268 268 267 266 267 268 270 271 271 271 270 270 270 271 272 274 274 273 270 268 267 268 268 266 262 259 256 254 250 248 246 247 249 251 253 253 252 250 249 251 255 259 262 263 262 260 258 257 260 263 264 265 268 271 274 277 279 280 278 276 274 272 269 266 263 260 256 251 246 240 237
267 268 269 270 271 272 272 273 274 275 274 274 273 273 273 273 273 271 269 268 268 270 270 270 269 267 266 267 269 272 273 274 274 274 272 270 268 267 266 263 260 257 254 252 250 248 246 246 248 252 254 254 251 248 247 251 255 259 260 260 259 259 260 260 259 259 259 262 265 269 273 276 276 274 271 271 271 270 268 264 261 258 254 250 244 239
264 265 267 268 268 269 270 271 272 272 273 274 275 276 277 277 276 275 273 271 270 270 271 270 267 264 263 264 266 268 270 272 274 275 273 272 269 266 264 263 262 260 257 255 253 251 249 247 247 248 250 252 253 252 251 251 252 253 255 257 258 257 258 258 257 256 257 257 259 262 267 269 269 267 267 268 269 269 268 267 264 260 257 253 249 244
263 265 267 268 268 270 272 272 271 270 270 271 272 274 274 274 274 274 273 271 270 269 268 267 264 262 262 262 263 263 266 269 271 272 273 272 270 268 265 262 262 261 260 258 256 255 253 252 249 247 245 246 249 253 254 253 251 250 252 253 254 254 255 255 256 256 256 255 256 257 259 259 259 261 265 268 268 268 267 268 267 265 260 256 253 250
264 266 268 270 271 272 273 273 271 270 269 270 271 271 271 271 271 270 270 270 270 269 267 264 263 262 263 262 263 263 263 265 267 269 269 269 268 267 265 264 263 262 260 258 257 257 257 256 254 251 247 243 244 248 252 253 252 250 250 250 250 250 252 254 255 255 254 253 253 253 252 251 252 254 259 264 266 267 267 267 268 267 264 260 256 253
268 269 270 271 272 272 273 273 273 272 271 271 272 272 273 272 271 269 269 269 270 270 267 265 264 264 264 263 263 263 263 264 266 267 267 266 266 265 263 262 262 262 259 256 253 253 254 256 256 255 251 247 243 242 244 249 251 252 250 249 247 247 248 251 254 254 252 251 250 249 249 249 249 250 252 256 262 266 268 267 266 266 266 263 259 256
269 269 270 270 270 270 271 271 272 273 274 275 276 277 277 276 274 272 271 269 270 270 269 266 264 263 263 263 263 263 263 263 264 265 265 266 265 264 262 260 258 257 256 255 252 248 245 248 251 253 252 250 246 242 238 240 245 248 249 247 245 244 245 248 251 252 250 249 248 247 247 247 246 246 246 249 256 262 265 265 264 263 266 266 264 260
Height
787 785 783 781 780 778 776 775 774 772 770 768 766 764 762 760 759 758 756 755 754 753 751 750 748 746 745 743 743 742 741 740 739 739 739 739 739 740 740 741 742 743 743 744 744 745 747 748 749 752 755 759 762 765 766 767 768 770 771 772 774 775 776 778 778 779 780 782 784 786 787 789 790 791 792 794 795 797 799 800 802 804 805 807 808 809
787 785 783 781 780 778 776 775 774 773 771 769 767 765 764 762 760 758 756 755 754 753 751 750 749 747 746 745 744 743 742 740 740 740 739 738 739 739 740 740 740 742 742 743 743 744 745 746 748 750 754 757 760 762 764 765 767 768 769 770 772 773 775 776 777 777 778 780 781 783 785 786 788 789 790 792 794 795 797 799 800 802 804 805 806 808
787 785 783 781 780 779 777 775 774 773 772 770 768 767 765 763 761 759 757 755 754 752 751 750 749 748 747 746 745 744 742 741 741 741 739 738 738 739 739 739 740 740 741 742 743 743 744 744 745 748 751 755 758 760 761 763 765 766 767 768 770 771 772 773 775 775 776 777 779 780 782 784 785 786 788 790 792 794 795 797 799 800 802 804 805 806
787 785 784 782 780 779 778 776 775 773 772 771 769 767 766 764 762 761 759 757 755 753 752 751 750 749 749 748 747 745 743 741 741 741 740 739 739 738 738 738 739 739 740 741 742 743 744 743 743 745 749 752 755 758 759 760 762 764 765 766 767 768 770 771 772 774 775 775 776 778 779 781 782 784 786 788 790 791 793 795 797 799 800 802 803 805
788 786 785 783 781 779 778 777 775 774 772 771 769 767 766 765 763 761 760 758 756 754 753 752 751 750 750 749 747 746 743 742 741 740 739 739 738 737 737 737 738 738 739 740 740 742 743 743 743 743 746 749 752 755 757 759 760 761 763 764 765 766 767 769 770 772 773 774 775 775 777 778 780 782 784 785 787 789 791 793 795 797 798 800 801 803
788 786 785 784 782 780 778 777 775 774 772 770 769 767 766 765 763 761 760 758 757 755 754 753 752 751 750 749 748 747 744 742 741 740 739 738 737 736 736 737 737 737 737 738 739 740 741 742 742 742 743 746 749 751 754 756 758 759 761 762 763 763 764 766 768 770 771 772 773 774 775 776 778 779 781 783 785 787 789 791 793 795 796 798 800 801
787 786 785 784 782 780 779 777 776 775 773 771 769 767 766 765 763 761 760 759 757 756 755 753 752 751 750 749 748 747 745 743 741 740 738 737 736 736 737 737 736 736 736 736 737 738 739 740 741 742 742 743 745 748 750 753 755 757 758 760 760 761 762 764 766 768 769 771 772 773 773 774 775 777 779 781 783 785 786 788 790 792 794 795 797 799
787 785 785 783 781 780 778 777 776 775 774 772 770 768 766 765 763 761 760 759 757 756 754 752 751 750 750 749 748 747 746 744 743 741 739 738 737 737 737 737 736 736 735 735 735 735 736 737 739 740 741 741 742 744 747 749 752 754 755 757 758 759 760 761 763 765 767 769 770 771 772 773 774 775 776 778 780 782 784 786 788 790 791 793 795 797
788 786 784 783 782 780 778 777 776 775 774 773 771 770 767 765 763 761 760 758 757 756 755 752 750 749 749 748 747 746 745 745 744 743 741 739 738 738 737 737 736 735 735 734 734 734 734 735 736 737 738 740 740 742 744 746 748 750 752 754 755 756 757 759 760 762 765 767 769 770 771 772 772 773 774 776 778 780 782 784 785 787 789 790 792 794
789 787 785 783 782 781 779 777 775 775 774 774 772 771 770 768 765 762 760 758 757 756 755 754 752 750 748 747 747 746 745 745 744 743 742 741 739 738 738 737 736 735 734 734 733 733 733 733 734 735 736 737 738 740 741 743 745 746 749 750 752 754 754 755 757 759 762 764 766 768 769 770 771 771 772 774 775 777 779 781 783 785 786 788 790 792
789 787 785 783 782 780 780 778 776 775 774 773 772 771 770 769 768 765 763 760 758 756 755 754 753 752 750 748 747 746 745 744 744 743 742 741 740 739 737 736 735 735 734 733 733 733 732 732 732 733 734 735 736 737 739 740 741 743 745 747 749 751 752 753 754 756 758 761 763 765 766 768 769 770 770 771 773 775 777 779 781 782 784 785 787 789
789 787 785 784 782 780 779 778 776 775 774 773 772 770 770 769 769 768 766 763 761 758 756 755 753 753 752 750 749 747 745 745 744 744 743 742 740 739 738 736 735 734 733 733 732 732 732 732 732 732 732 733 734 735 736 737 739 740 742 744 746 748 750 751 752 754 755 757 760 761 763 765 766 767 769 770 771 772 774 776 778 780 781 783 785 787
789 788 786 784 783 781 780 778 777 775 775 774 773 772 771 770 769 769 767 765 763 761 759 756 754 752 752 751 750 748 746 746 745 745 744 743 742 740 739 737 735 734 734 733 732 731 731 731 731 731 731 732 732 733 734 735 736 738 739 741 743 745 747 749 750 752 754 755 756 758 760 762 764 765 766 767 769 770 772 774 775 777 779 780 782 784
789 788 786 785 783 781 780 779 778 776 775 775 775 774 772 771 770 769 768 766 764 763 761 759 756 753 752 751 750 749 748 746 746 745 745 745 744 742 740 739 737 735 734 733 732 731 730 730 730 731 731 731 731 731 732 733 734 736 737 739 740 742 744 746 748 750 751 753 754 756 757 759 761 762 763 765 766 768 770 771 772 774 776 778 780 781
790 788 787 785 783 782 781 780 779 778 776 776 775 774 773 771 770 770 768 766 765 763 761 759 756 754 753 752 751 750 748 747 746 745 745 745 744 743 742 740 738 736 735 733 732 731 730 730 730 730 730 730 730 731 731 731 732 733 735 736 738 739 741 743 745 747 749 750 752 754 755 756 758 760 761 762 764 766 767 768 770 771 774 775 777 779
790 789 787 785 784 782 781 780 780 778 777 776 775 774 773 772 771 770 769 768 766 764 762 760 757 754 752 752 751 750 749 748 747 746 745 744 744 744 743 741 739 736 735 734 732 731 730 730 730 730 730 730 730 730 730 730 731 732 733 734 735 737 738 740 742 745 746 748 750 751 752 754 755 756 758 759 761 763 765 767 768 770 771 773 775 776
790 789 787 786 784 782 781 781 780 779 778 776 775 775 774 773 772 771 770 769 767 765 764 762 760 756 753 751 751 751 750 749 747 746 745 743 743 743 743 742 740 737 735 734 733 731 730 730 730 730 730 730 730 730 730 730 730 731 731 732 734 735 736 738 740 742 744 746 747 748 749 750 751 753 755 756 758 760 762 765 766 768 769 770 772 774
790 789 787 786 784 783 782 781 780 779 778 777 775 775 774 773 772 771 770 769 768 766 765 763 762 760 756 753 751 751 750 750 749 747 745 743 741 741 742 741 740 738 736 735 734 732 731 730 730 730 730 730 730 730 730 730 730 730 730 731 732 733 734 735 737 739 740 743 744 745 746 747 749 750 752 754 755 757 759 761 763 765 766 768 769 771
790 788 787 786 784 783 782 781 780 779 778 777 776 775 774 773 772 771 770 770 769 767 766 765 763 760 758 755 753 752 751 751 750 748 745 743 741 740 741 741 740 738 736 735 734 733 731 730 729 729 729 729 730 730 730 730 730 730 730 730 731 731 732 733 735 736 738 740 741 742 744 745 746 748 750 751 753 754 756 758 760 762 764 765 767 768
789 788 787 786 784 783 781 780 780 780 779 777 776 775 774 773 772 771 770 769 768 767 766 765 763 761 759 756 754 752 752 751 750 749 746 744 741 740 741 741 740 738 736 735 734 733 732 730 729 728 728 728 729 729 729 729 729 729 729 730 730 730 730 731 732 734 735 736 738 739 741 742 744 745 747 749 750 752 754 755 757 759 761 763 765 766
788 787 786 785 785 783 781 780 780 779 779 778 777 775 774 773 772 770 770 769 768 767 766 765 763 761 759 757 754 752 752 752 751 749 746 744 741 740 740 740 740 738 736 735 734 733 732 730 729 728 727 727 727 727 728 728 728 728 728 729 729 729 729 730 730 731 732 733 735 736 737 739 741 743 745 746 748 750 752 754 755 757 758 760 762 764
787 785 785 784 784 783 781 780 779 779 778 777 777 775 774 773 772 770 770 769 768 766 765 764 762 760 759 757 754 752 752 752 751 750 747 744 741 740 740 740 739 738 736 735 733 732 731 730 729 728 727 726 726 725 725 726 726 727 727 727 727 728 728 728 729 729 730 731 732 733 734 735 737 740 741 744 745 747 749 751 753 755 756 757 758 760
785 784 783 783 782 781 780 779 778 778 777 777 776 775 774 773 772 770 769 768 767 766 764 762 761 759 758 756 754 752 751 751 751 750 748 745 741 739 739 739 738 737 735 734 733 732 731 730 729 728 727 726 725 725 724 724 724 724 725 725 726 726 726 726 727 727 728 729 729 730 731 733 735 736 738 740 742 744 746 748 750 752 754 755 755 757
783 782 781 781 780 780 779 778 777 776 776 775 775 774 773 772 771 770 769 768 766 765 763 761 760 757 755 754 753 751 750 750 750 749 748 745 741 739 738 738 738 736 734 733 732 731 730 729 728 727 726 726 725 724 724 723 723 723 723 723 723 724 724 725 725 725 726 727 727 728 729 730 732 734 735 737 739 741 743 745 747 749 751 752 753 754
782 781 780 779 778 778 777 776 776 775 775 774 774 773 772 771 770 769 767 766 765 764 762 761 759 756 754 753 752 750 749 749 749 749 747 744 741 738 737 738 737 735 733 732 731 730 730 728 727 726 726 725 725 724 723 722 722 722 721 721 721 721 722 723 723 724 724 725 725 726 727 728 729 731 732 734 736 738 739 741 744 746 748 749 750 751
780 779 778 777 776 776 775 775 774 774 774 773 773 772 771 770 769 767 766 765 764 763 762 760 757 755 753 752 750 749 748 748 748 747 746 744 741 738 736 736 736 735 733 731 730 730 729 727 726 725 725 724 724 723 722 722 721 720 720 720 720 720 720 720 721 721 722 722 723 724 725 725 727 728 730 731 733 734 736 738 740 743 745 746 748 749
777 776 776 775 775 774 773 773 772 772 772 771 771 771 770 770 768 766 765 764 763 762 760 758 756 753 752 750 749 748 747 747 746 746 745 744 741 738 735 735 735 734 732 730 729 728 728 726 725 725 724 724 723 722 721 721 720 720 719 719 719 719 718 718 719 719 720 720 721 722 722 723 724 725 727 728 730 731 733 735 737 740 742 744 745 747
775 774 774 773 772 772 771 770 770 770 769 769 769 769 769 769 767 765 763 762 762 761 759 757 755 753 751 749 748 746 746 745 745 745 744 743 740 737 735 735 734 733 731 729 727 726 726 725 724 724 723 722 722 721 720 720 719 719 718 718 718 717 717 717 717 717 718 718 719 720 720 721 722 723 724 725 726 728 730 732 734 737 739 741 742 744
772 772 771 770 770 769 769 768 767 767 766 766 766 766 767 767 765 764 762 761 761 760 758 756 755 753 750 749 747 746 745 744 743 743 743 742 739 736 735 734 733 732 731 729 726 725 724 723 723 723 722 721 721 720 720 719 718 718 717 717 716 716 716 716 716 716 716 716 717 717 718 719 720 720 721 722 724 725 727 729 732 735 736 738 739 740
771 770 769 769 768 767 767 766 765 765 764 764 764 764 764 764 763 762 761 760 760 759 757 755 754 752 750 749 747 745 743 742 742 742 741 740 738 735 735 734 733 732 731 730 727 725 722 722 721 721 721 720 720 719 719 718 717 717 716 716 715 715 715 715 715 715 715 715 715 715 716 717 717 718 719 720 721 722 724 726 729 732 734 735 736 737
769 769 768 767 767 766 765 765 764 763 762 762 761 761 761 761 760 760 760 759 758 757 756 754 752 751 750 749 747 744 741 740 740 741 740 740 737 735 735 734 732 732 731 731 730 727 723 720 720 720 720 720 719 718 717 717 716 716 715 715 714 714 714 714 713 713 713 714 714 714 715 715 715 716 716 717 718 719 720 723 725 728 730 731 733 733
767 766 765 765 765 764 763 763 762 761 760 760 759 759 759 758 758 758 757 757 756 755 755 753 751 750 749 748 746 744 741 740 740 740 740 739 737 735 734 733 732 731 731 731 731 729 726 722 719 719 719 719 718 717 717 716 716 715 715 714 714 713 713 713 712 712 712 712 712 713 713 714 714 715 715 715 716 717 718 719 721 724 725 727 728 729
765 764 763 763 762 762 761 760 760 759 758 758 757 756 756 756 755 755 755 754 754 753 752 751 750 748 747 746 744 742 741 740 740 740 740 739 737 735 734 733 732 731 730 730 729 729 727 723 720 719 718 717 717 716 716 715 715 714 714 713 713 712 712 712 711 711 711 711 711 711 712 712 713 713 713 714 714 715 715 716 718 720 721 723 724 725
762 762 761 760 760 759 759 758 757 757 756 755 755 754 754 753 753 752 752 752 751 751 750 749 748 747 745 744 742 740 739 739 739 739 739 739 737 735 733 732 731 730 730 729 728 726 725 723 721 719 717 716 715 715 715 714 714 713 713 713 712 712 711 711 711 710 710 710 710 710 710 711 711 712 712 712 713 713 714 714 715 716 718 719 721 722
760 760 759 758 758 757 756 755 755 754 754 753 752 752 751 751 750 750 749 749 749 748 748 747 746 745 744 743 741 739 737 737 738 738 738 737 736 734 732 731 730 730 730 728 726 725 724 722 720 720 718 716 714 713 713 713 712 712 712 711 711 711 710 710 710 710 710 709 709 709 710 710 710 710 711 711 711 712 712 713 713 714 715 716 717 719
758 757 756 756 755 755 754 753 752 752 751 750 750 749 749 748 748 747 747 746 746 746 745 745 744 743 742 741 739 737 736 736 736 737 736 736 735 734 732 730 729 729 729 727 725 725 723 721 720 719 718 716 714 712 711 711 711 711 710 710 710 710 710 710 710 709 709 709 709 709 709 709 709 709 710 710 710 710 711 711 711 712 713 714 715 716
756 755 754 754 753 752 751 750 750 749 748 748 747 747 746 746 745 745 744 744 744 743 743 742 741 740 740 738 737 735 734 734 734 735 735 735 734 733 731 729 728 728 728 726 725 724 723 721 720 718 717 716 715 713 711 710 710 710 710 710 709 709 709 709 709 709 708 708 708 708 708 708 708 708 708 709 709 709 709 710 710 710 711 711 712 713
754 753 752 752 751 750 749 748 747 746 746 745 745 744 744 744 743 743 742 741 741 741 740 740 739 738 737 736 735 734 733 732 732 732 732 733 732 731 730 728 727 726 726 725 725 724 723 721 719 717 716 715 714 712 711 710 710 709 708 708 708 708 708 708 708 707 707 707 707 707 707 707 707 707 707 707 707 707 708 708 708 709 709 709 710 710
752 751 750 750 749 748 747 746 745 744 744 743 742 742 742 741 741 740 740 739 739 738 738 737 736 735 735 734 732 731 730 730 730 730 730 730 730 729 728 727 725 724 724 724 723 723 722 720 718 716 715 714 712 711 710 710 709 708 708 707 707 706 706 706 706 706 706 706 706 706 705 706 706 706 706 706 706 706 706 706 706 707 707 708 708 708
750 750 748 748 747 746 745 744 743 742 741 741 740 740 739 739 738 738 737 737 736 736 735 735 734 733 732 731 730 729 728 727 727 727 727 727 726 726 726 725 723 722 721 721 721 721 720 719 717 715 715 713 712 710 710 709 708 707 707 707 706 705 705 705 705 705 705 705 705 705 705 705 705 705 705 705 705 705 705 705 705 705 705 705 706 706
749 748 746 745 745 744 743 742 741 740 740 739 738 737 737 736 736 735 735 734 734 733 733 732 731 730 729 728 727 726 725 725 724 724 724 723 723 723 723 722 721 720 720 719 719 718 718 717 715 714 713 712 711 710 709 708 707 707 707 706 705 704 704 704 704 703 703 703 703 703 703 703 703 703 703 703 703 703 703 703 703 703 704 704 704 704
747 745 744 744 743 742 740 740 739 738 738 737 736 735 734 734 734 733 732 732 731 730 730 730 729 728 727 725 725 724 723 722 722 721 720 720 720 720 720 719 718 718 717 717 716 715 715 714 713 712 711 711 710 709 707 706 706 706 706 705 704 704 703 702 702 702 702 702 702 702 702 702 702 702 702 701 701 701 701 701 701 701 701 702 702 702
745 743 742 742 741 740 739 738 737 736 736 735 734 733 732 732 731 731 730 729 729 728 728 728 727 726 725 723 722 721 720 720 720 719 718 717 717 717 717 716 715 715 715 715 714 712 712 712 711 710 709 709 709 708 706 705 705 705 704 704 704 704 702 701 700 700 700 700 700 700 700 701 700 700 700 700 700 699 699 699 699 699 699 700 700 700
743 742 741 740 739 738 738 737 735 735 734 733 732 730 730 729 729 729 728 727 726 726 725 725 725 724 723 721 720 719 718 718 717 717 716 715 715 714 714 714 713 713 712 712 711 710 710 710 709 708 708 708 707 706 705 704 704 703 703 702 703 702 701 700 700 700 700 699 699 699 699 699 699 699 698 698 697 697 697 697 697 697 697 697 697 698
741 740 740 739 738 737 736 735 734 733 732 730 729 728 727 727 727 726 725 725 724 724 723 723 723 722 720 719 718 717 716 715 715 714 714 713 712 712 711 711 710 710 710 709 708 708 708 707 706 706 706 706 705 704 703 703 702 702 701 701 701 700 699 699 699 699 699 698 698 698 698 698 698 697 697 696 695 695 695 695 695 695 695 695 695 695
739 738 737 736 736 735 734 733 732 731 730 728 727 726 725 725 725 724 723 722 722 721 721 721 721 720 718 716 716 715 714 713 712 712 712 711 710 710 709 708 708 708 707 706 706 705 705 705 705 705 705 704 703 702 701 701 701 700 699 699 699 699 698 698 697 697 697 697 696 696 696 696 696 696 695 694 694 693 692 692 692 692 692 692 693 693
737 736 735 734 733 732 731 730 730 729 728 727 725 725 724 724 723 722 721 720 720 719 719 719 718 717 715 715 714 714 712 711 710 710 710 710 709 708 708 706 706 705 705 704 704 703 703 702 703 703 703 703 701 700 699 699 699 699 698 698 697 697 696 696 695 695 695 695 695 695 695 695 695 695 694 693 692 691 690 690 690 690 690 690 690 690
734 734 733 732 731 730 729 728 728 727 726 725 724 723 722 722 721 720 720 719 718 717 717 716 715 714 713 712 712 711 710 709 708 708 708 707 707 707 706 705 705 704 703 702 701 701 700 700 700 701 701 700 699 698 697 697 697 697 696 696 696 695 695 694 694 694 694 693 693 693 693 693 693 693 693 692 691 690 689 688 688 688 688 688 688 689
732 731 730 730 729 728 727 726 725 725 723 722 721 720 720 719 719 719 718 717 716 715 714 713 712 712 711 710 709 709 708 707 706 706 705 705 705 705 705 704 703 703 702 700 700 699 698 698 697 697 697 698 697 697 696 695 695 695 695 694 694 693 693 692 692 692 692 692 691 691 691 691 691 691 691 691 690 688 687 687 686 686 686 686 686 686
730 729 729 728 727 726 725 724 723 722 721 720 719 718 717 717 716 716 715 715 714 713 712 711 710 710 709 708 707 706 705 705 704 704 703 703 703 703 703 702 702 701 700 700 698 697 697 696 695 694 694 694 695 695 695 694 693 693 693 692 692 691 691 690 690 690 690 690 690 690 690 690 689 690 690 689 688 687 686 685 685 684 684 684 684 685
728 727 727 726 725 724 723 722 721 720 719 718 717 716 715 715 714 713 713 712 712 711 710 709 708 708 706 705 705 704 704 703 702 701 701 701 701 701 701 700 700 700 699 698 697 695 695 694 692 691 690 690 690 691 692 692 692 692 691 690 690 690 690 689 688 688 688 688 688 688 688 688 687 688 688 688 687 686 685 684 683 683 682 682 683 683